Track STARLINK-1504 now! 10-day predictions STARLINK-1504 is classified as:
1 45746U 20038S 21018.72292366 .00002523 00000-0 19213-3 0 9999 2 45746 53.0023 18.1592 0001505 82.1205 277.9954 15.05614042 33430